Location: Newark
(44.9861°N, 0.2536°E)
Time: 18:41:52
(UTC+00:00)

HuskySat-1 - Pass Details

Date: 17 July 2020
Orbit: 457 x 471 km, 51.6° (Epoch: 11 August)

Event Time Altitude Azimuth Distance (km) Brightness Sun altitude
Rises 23:02:46 0° 262° (W) 2,497 ? -22.5°
Reaches altitude 10° 23:05:01 10° 270° (W) 1,620 ? -22.6°
Maximum altitude 23:08:29 40° 342° (NNW) 695 ? -22.8°
Drops below altitude 10° 23:11:57 10° 54° (NE) 1,616 ? -22.9°
Sets 23:14:11 0° 62° (ENE) 2,490 ? -23.0°
